Weather History for Madison, MN

Change the Weather History Date:

Wednesday, March 13, 2013

  Actual Average (KAQP) Record (KAQP)
Temperature  
Mean Temperature 16 °F -  
Max Temperature 30 °F 30 °F 68 °F (2012)
Min Temperature 5 °F 14 °F 1 °F (2011)
Degree Days  
Heating Degree Days 48    
Moisture  
Dew Point 13 °F    
Average Humidity 80    
Maximum Humidity 86    
Minimum Humidity 73    
Precipitation  
Precipitation 0.00 in - - ()
Sea Level Pressure  
Sea Level Pressure 30.30 in    
Wind  
Wind Speed 9 mph (SSW)    
Max Wind Speed 17 mph    
Max Gust Speed 23 mph    
Visibility 10 miles    
Events Snow    
Averages and records for this station are not official NWS values.
T = Trace of Precipitation, MM = Missing Value Source: NWS Daily Summary

Daily Weather History Graph

Daily Weather History Graph

Search for Another Location

Airport:

Trip Planner

Search our weather history database for the weather conditions in past years. The results will help you decide how hot, cold, wet, or windy it might be!

Date:

Astronomy

Mar. 13, 2013 Rise Set
Actual Time 7:40 AM CDT 7:28 PM CDT
Civil Twilight 7:11 AM CDT 7:57 PM CDT
Nautical Twilight 6:37 AM CDT 8:31 PM CDT
Astronomical Twilight 6:02 AM CDT 9:06 PM CDT
Moon 8:13 AM CDT (3/13) 9:54 PM CDT (3/13)
Length of Visible Light 12h 46m
Length of Day
11h 48m
Waxing Crescent, 4% of the Moon is Illuminated
Mar 13
Waxing Crescent
Mar 19
First Quarter
Mar 27
Full
Apr 2
Last Quarter
Apr 10
New

Hourly Weather History & Observations

Time (CDT) Temp. Windchill Dew Point Humidity Pressure Visibility Wind Dir Wind Speed Gust Speed Precip Events Conditions
12:14 AM 19.4 °F 4.5 °F 15.8 °F 86% 30.30 in 10.0 mi NNW 17.3 mph - N/A   Overcast
12:54 AM 19.4 °F 7.2 °F 14.0 °F 80% 30.31 in 10.0 mi NNW 11.5 mph 23.0 mph N/A   Overcast
1:14 AM 19.4 °F 6.0 °F 14.0 °F 80% 30.31 in 10.0 mi NNW 13.8 mph 18.4 mph N/A   Overcast
1:33 AM 19.4 °F 5.5 °F 14.0 °F 80% 30.31 in 10.0 mi NNW 15.0 mph 20.7 mph N/A Snow Light Snow
1:54 AM 17.6 °F 3.2 °F 12.2 °F 79% 30.32 in 10.0 mi NNW 15.0 mph 18.4 mph N/A Snow Light Snow
2:33 AM 17.6 °F 3.7 °F 12.2 °F 79% 30.32 in 10.0 mi NNW 13.8 mph - N/A   Mostly Cloudy
2:54 AM 15.8 °F 6.1 °F 10.4 °F 79% 30.32 in 10.0 mi NW 6.9 mph - N/A   Scattered Clouds
3:14 AM 15.8 °F 4.2 °F 10.4 °F 79% 30.32 in 10.0 mi NW 9.2 mph - N/A   Clear
3:54 AM 12.2 °F -0.2 °F 8.6 °F 85% 30.33 in 10.0 mi NW 9.2 mph - N/A   Clear
4:14 AM 12.2 °F -1.8 °F 8.6 °F 85% 30.34 in 10.0 mi NW 11.5 mph - N/A   Clear
4:33 AM 12.2 °F -0.2 °F 8.6 °F 85% 30.34 in 10.0 mi WNW 9.2 mph - N/A   Clear
4:54 AM 12.2 °F 0.7 °F 6.8 °F 79% 30.34 in 10.0 mi NW 8.1 mph - N/A   Clear
5:14 AM 10.4 °F -1.5 °F 6.8 °F 85% 30.34 in 10.0 mi WNW 8.1 mph - N/A   Clear
5:33 AM 10.4 °F -0.4 °F 6.8 °F 85% 30.34 in 10.0 mi WNW 6.9 mph - N/A   Clear
5:53 AM 10.4 °F -1.5 °F 6.8 °F 85% 30.35 in 10.0 mi WNW 8.1 mph - N/A   Clear
6:14 AM 8.6 °F -3.7 °F 5.0 °F 85% 30.35 in 10.0 mi WNW 8.1 mph - N/A   Clear
6:33 AM 10.4 °F -0.4 °F 6.8 °F 85% 30.35 in 10.0 mi WNW 6.9 mph - N/A   Clear
6:53 AM 10.4 °F 0.8 °F 5.0 °F 79% 30.35 in 10.0 mi WNW 5.8 mph - N/A   Clear
7:14 AM 8.6 °F -2.6 °F 3.2 °F 79% 30.35 in 10.0 mi WNW 6.9 mph - N/A   Clear
7:33 AM 6.8 °F -3.5 °F 3.2 °F 85% 30.36 in 10.0 mi WNW 5.8 mph - N/A   Clear
7:53 AM 8.6 °F 0.1 °F 3.2 °F 79% 30.35 in 10.0 mi WNW 4.6 mph - N/A   Clear
8:14 AM 5.0 °F -6.9 °F 1.4 °F 85% 30.36 in 10.0 mi West 6.9 mph - N/A   Clear
8:33 AM 6.8 °F -3.5 °F 1.4 °F 79% 30.37 in 10.0 mi West 5.8 mph - N/A   Clear
8:53 AM 8.6 °F -1.3 °F 3.2 °F 79% 30.37 in 10.0 mi West 5.8 mph - N/A   Clear
9:14 AM 8.6 °F 0.1 °F 3.2 °F 79% 30.39 in 10.0 mi West 4.6 mph - N/A   Clear
9:33 AM 10.4 °F 4.0 °F 5.0 °F 79% 30.38 in 10.0 mi WNW 3.5 mph - N/A   Clear
9:54 AM 10.4 °F - 6.8 °F 85% 30.38 in 10.0 mi Calm Calm - N/A   Clear
10:14 AM 12.2 °F 2.9 °F 6.8 °F 79% 30.39 in 10.0 mi NW 5.8 mph - N/A   Clear
10:33 AM 12.2 °F 4.3 °F 8.6 °F 85% 30.39 in 10.0 mi WNW 4.6 mph - N/A   Clear
10:54 AM 14.0 °F 8.2 °F 8.6 °F 79% 30.39 in 10.0 mi WNW 3.5 mph - N/A   Clear
11:14 AM 15.8 °F - 8.6 °F 73% 30.39 in 10.0 mi Calm Calm - N/A   Clear
11:33 AM 15.8 °F - 8.6 °F 73% 30.39 in 10.0 mi Calm Calm - N/A   Clear
11:54 AM 15.8 °F - 10.4 °F 79% 30.38 in 10.0 mi Calm Calm - N/A   Clear
12:14 PM 15.8 °F - 10.4 °F 79% 30.38 in 10.0 mi Calm Calm - N/A   Clear
12:33 PM 17.6 °F - 10.4 °F 73% 30.37 in 10.0 mi Calm Calm - N/A   Clear
12:54 PM 17.6 °F - 10.4 °F 73% 30.37 in 10.0 mi Calm Calm - N/A   Clear
1:14 PM 19.4 °F - 12.2 °F 74% 30.37 in 10.0 mi Calm Calm - N/A   Clear
1:33 PM 19.4 °F 12.8 °F 12.2 °F 74% 30.37 in 10.0 mi SSW 4.6 mph - N/A   Clear
1:54 PM 21.2 °F 16.4 °F 14.0 °F 74% 30.37 in 10.0 mi SSW 3.5 mph - N/A   Clear
2:14 PM 21.2 °F 16.4 °F 14.0 °F 74% 30.35 in 10.0 mi South 3.5 mph - N/A   Clear
2:33 PM 21.2 °F 16.4 °F 15.8 °F 80% 30.35 in 10.0 mi South 3.5 mph - N/A   Clear
2:54 PM 23.0 °F 17.0 °F 15.8 °F 74% 30.33 in 10.0 mi South 4.6 mph - N/A   Clear
3:14 PM 23.0 °F 15.8 °F 15.8 °F 74% 30.32 in 10.0 mi SSE 5.8 mph - N/A   Clear
3:33 PM 23.0 °F 14.7 °F 17.6 °F 80% 30.31 in 10.0 mi SSE 6.9 mph - N/A   Clear
3:54 PM 24.8 °F 15.3 °F 17.6 °F 74% 30.29 in 10.0 mi SE 9.2 mph - N/A   Clear
4:13 PM 24.8 °F 14.6 °F 17.6 °F 74% 30.28 in 10.0 mi SSE 10.4 mph - N/A   Clear
4:33 PM 24.8 °F 14.6 °F 19.4 °F 80% 30.28 in 10.0 mi SSE 10.4 mph - N/A   Clear
4:54 PM 26.6 °F 17.5 °F 19.4 °F 74% 30.28 in 10.0 mi SSE 9.2 mph - N/A   Clear
5:13 PM 26.6 °F 17.5 °F 19.4 °F 74% 30.27 in 10.0 mi SSE 9.2 mph - N/A   Clear
5:33 PM 26.6 °F 16.2 °F 19.4 °F 74% 30.26 in 10.0 mi SSE 11.5 mph - N/A   Clear
5:54 PM 26.6 °F 16.8 °F 19.4 °F 74% 30.25 in 10.0 mi SE 10.4 mph - N/A   Clear
6:13 PM 24.8 °F 14.0 °F 19.4 °F 80% 30.25 in 10.0 mi SE 11.5 mph - N/A   Clear
6:33 PM 24.8 °F 14.6 °F 19.4 °F 80% 30.25 in 10.0 mi SE 10.4 mph - N/A   Clear
6:54 PM 24.8 °F 15.3 °F 19.4 °F 80% 30.25 in 10.0 mi SE 9.2 mph - N/A   Clear
7:13 PM 24.8 °F 16.1 °F 19.4 °F 80% 30.25 in 10.0 mi SE 8.1 mph - N/A   Clear
7:33 PM 23.0 °F 13.9 °F 19.4 °F 86% 30.24 in 10.0 mi ESE 8.1 mph - N/A   Clear
7:54 PM 23.0 °F 13.1 °F 19.4 °F 86% 30.23 in 10.0 mi SE 9.2 mph - N/A   Clear
8:13 PM 23.0 °F 11.7 °F 19.4 °F 86% 30.21 in 10.0 mi SE 11.5 mph - N/A   Clear
8:33 PM 23.0 °F 11.1 °F 19.4 °F 86% 30.20 in 10.0 mi SE 12.7 mph - N/A   Mostly Cloudy
8:54 PM 23.0 °F 9.6 °F 19.4 °F 86% 30.18 in 10.0 mi SE 16.1 mph - N/A   Overcast
9:13 PM 24.8 °F 12.4 °F 19.4 °F 80% 30.18 in 10.0 mi SE 15.0 mph - N/A   Overcast
9:34 PM 24.8 °F 12.9 °F 21.2 °F 86% 30.17 in 10.0 mi SE 13.8 mph - N/A   Overcast
9:53 PM 24.8 °F 13.4 °F 21.2 °F 86% 30.17 in 10.0 mi SE 12.7 mph - N/A   Overcast
10:14 PM 24.8 °F 13.4 °F 21.2 °F 86% 30.16 in 10.0 mi SE 12.7 mph - N/A   Overcast
10:34 PM 26.6 °F 15.2 °F 23.0 °F 86% 30.15 in 10.0 mi SE 13.8 mph - N/A   Overcast
10:53 PM 26.6 °F 15.7 °F 23.0 °F 86% 30.14 in 10.0 mi SSE 12.7 mph - N/A   Overcast
11:14 PM 28.4 °F 17.0 °F 24.8 °F 86% 30.11 in 10.0 mi SSE 15.0 mph - N/A   Scattered Clouds
11:34 PM 28.4 °F 18.0 °F 24.8 °F 86% 30.11 in 10.0 mi SSE 12.7 mph - N/A   Scattered Clouds
11:53 PM 30.2 °F 19.8 °F 24.8 °F 80% 30.09 in 10.0 mi SSE 13.8 mph - N/A   Clear